Content
SEND FEEDBACK

Daily
Averages
Monthly
Summary
United States of America

WILMINGTON, NORTH CAROLINA


Home > North America > United States > North Carolina
Elevation: 21 meters     Latitude: 34 16N     Longitude: 077 54W

WEATHER
 
SELECT A DAY
Number of Records: 208,628;   Date Range: 1/1/95 - 7/20/14
 
SHARE

PRINT THIS DATA

[ ← Previous Day ]
WEATHER ALMANAC - 16 JULY, 2013
[ Next Day → ]
[ °F ]   °C
Weather ElementAverageHighLow
Temperature27.3 °C32.2 °C (2:53 pm)21.7 °C (4:53 am)
Dewpoint21.8 °C22.8 °C (7:53 am)20.6 °C (2:53 pm)
Humidity73.9 %97 % (6:53 am)50 % (2:53 pm)
Barometer1024 hPa1025.7 hPa (8:53 am)1022 hPa (6:53 pm)
Wind Speed4.7 km/h13 km/h (3:53 pm)
Weather ElementAverage
Visibility15.9 km
Wind DirectionE (92.6 °)

Weather ElementTotal
Precipitation0.76 mm
Cooling Degree Days8.7 (Base 18.3)
Growing Degree Days17 (Base 10)
Averaged from 23 records on 16 July, 2013
WEATHER CONDITIONS BREAKOUT
WIND DIRECTION BREAKOUT
WEATHER BY HOUR - 16 JULY, 2013
[ °F ]   °C
Local TimeTemperatureDewpointHumidityBarometerVisibilityWind DirectionWind SpeedGust SpeedPrecipitationEventsConditions
1:53 AM22.8 °C21.7 °C93 %1024.4 hPa16.1 kmCalmClear
2:53 AM22.8 °C21.7 °C93 %1024.4 hPa16.1 kmCalm0.25 mmClear
3:53 AM22.8 °C21.7 °C93 %1024.4 hPa16.1 kmCalmClear
4:53 AM21.7 °C21.1 °C96 %1024.4 hPa16.1 kmCalm0.25 mmClear
5:53 AM21.7 °C21.1 °C96 %1024.7 hPa12.9 kmCalmClear
6:53 AM22.2 °C21.7 °C97 %1025.1 hPa16.1 kmCalmClear
7:53 AM24.4 °C22.8 °C91 %1025.4 hPa16.1 kmCalmClear
8:53 AM26.7 °C22.8 °C79 %1025.7 hPa16.1 kmCalmClear
9:53 AM28.3 °C22.2 °C69 %1025.1 hPa16.1 kmNNW (330°)5.6 km/h0.25 mmClear
10:53 AM29.4 °C21.7 °C63 %1025.1 hPa16.1 kmCalmClear
11:53 AM31.1 °C21.1 °C55 %1024.7 hPa16.1 kmVariable7.4 km/hClear
12:53 PM31.1 °C21.1 °C55 %1024.4 hPa16.1 kmEast (100°)7.4 km/hClear
1:53 PM31.7 °C21.1 °C53 %1023.7 hPa16.1 kmVariable5.6 km/hScattered Clouds
2:53 PM32.2 °C20.6 °C50 %1023.4 hPa16.1 kmCalmMostly Cloudy
3:53 PM32.2 °C22.2 °C55 %1022.7 hPa16.1 kmSSE (160°)13 km/hMostly Cloudy
4:53 PM31.7 °C22.2 °C57 %1022.7 hPa16.1 kmSSE (150°)11.1 km/hPartly Cloudy
5:53 PM30.6 °C21.7 °C59 %1022.4 hPa16.1 kmSSE (160°)9.3 km/hClear
6:53 PM30 °C21.1 °C59 %1022 hPa16.1 kmSouth (170°)7.4 km/hClear
7:53 PM28.3 °C22.2 °C69 %1022.4 hPa16.1 kmSouth (190°)9.3 km/hClear
8:53 PM27.2 °C22.2 °C74 %1022.7 hPa16.1 kmSSW (210°)9.3 km/hClear
9:53 PM26.7 °C22.8 °C79 %1023.4 hPa16.1 kmSW (220°)9.3 km/hClear
10:53 PM26.1 °C22.8 °C82 %1023.4 hPa16.1 kmSW (220°)7.4 km/hClear
11:53 PM26.1 °C22.8 °C82 %1023 hPa16.1 kmSW (220°)5.6 km/hClear
Hourly data recorded from KILM, located 0 kilometers away from Wilmington, North Carolina







STORIES FROM OUR PARTNERS